Tracking 19485 objects as of 21-Jan-2019
HD Live streaming from Space Station
objects crossing your sky now

IRIDIUM 32

Track IRIDIUM 32 now!
10-day predictions
IRIDIUM 32 is classified as:


NORAD ID: 24945
Int'l Code: 1997-051B
Perigee: 783.0 km
Apogee: 786.6 km
Inclination: 86.4 °
Period: 100.4 minutes
Semi major axis: 7155 km
RCS: 4.1744 m2 (large)
Launch date: September 14, 1997
Source: United States (US)
Launch site: TYURATAM MISSILE AND SPACE COMPLEX (TTMTR)
aabbcc
Your satellite tracking list
Your tracking list is empty




NASA's NSSDC Master Catalog

Two Line Element Set (TLE):
1 24945U 97051B   19019.67122805 +.00000007 +00000-0 -43996-5 0  9991
2 24945 086.3931 044.0199 0002446 080.9206 279.2266 14.34219706117767
Source of the keplerian elements: AFSPC